TimeMST,TemperatureF,Dew PointF,Humidity,Sea Level PressureIn,VisibilityMPH,Wind Direction,Wind SpeedMPH,Gust SpeedMPH,PrecipitationIn,Events,Conditions,WindDirDegrees,DateUTC
12:53 AM,17.1,3.0,54,30.14,10.0,North,4.6,-,N/A,,Clear,360,2013-02-27 07:53:00
1:53 AM,17.1,3.0,54,30.14,10.0,Calm,Calm,-,N/A,,Clear,0,2013-02-27 08:53:00
2:53 AM,16.0,3.9,59,30.17,10.0,East,4.6,-,N/A,,Clear,80,2013-02-27 09:53:00
3:53 AM,10.9,3.0,70,30.19,10.0,Calm,Calm,-,N/A,,Clear,0,2013-02-27 10:53:00
4:53 AM,8.1,1.0,73,30.23,10.0,Calm,Calm,-,N/A,,Clear,0,2013-02-27 11:53:00
5:53 AM,12.0,3.0,67,30.23,10.0,Calm,Calm,-,N/A,,Clear,0,2013-02-27 12:53:00
6:53 AM,9.0,1.9,73,30.28,10.0,NNW,4.6,-,N/A,,Clear,340,2013-02-27 13:53:00
7:53 AM,16.0,7.0,68,30.29,10.0,Calm,Calm,-,N/A,,Clear,0,2013-02-27 14:53:00
8:53 AM,24.1,7.0,48,30.28,10.0,NNW,4.6,-,N/A,,Clear,340,2013-02-27 15:53:00
9:53 AM,27.0,3.0,36,30.29,10.0,Calm,Calm,-,N/A,,Clear,0,2013-02-27 16:53:00
10:53 AM,30.9,-0.0,27,30.27,10.0,Calm,Calm,-,N/A,,Clear,0,2013-02-27 17:53:00
11:53 AM,33.1,-2.9,21,30.25,10.0,Variable,3.5,-,N/A,,Clear,0,2013-02-27 18:53:00
12:53 PM,37.0,-6.0,16,30.21,10.0,Variable,3.5,-,N/A,,Clear,0,2013-02-27 19:53:00
1:53 PM,-9999,-9999,N/A,30.19,-9999.0,North,-9999.0,-,N/A,,Unknown,0,2013-02-27 20:53:00
2:53 PM,39.0,-2.0,18,30.17,10.0,Calm,Calm,-,N/A,,Clear,0,2013-02-27 21:53:00
3:53 PM,39.0,-2.0,18,30.19,10.0,SW,5.8,-,N/A,,Clear,220,2013-02-27 22:53:00
4:53 PM,39.9,1.0,20,30.20,10.0,Variable,4.6,-,N/A,,Clear,0,2013-02-27 23:53:00
5:53 PM,35.1,-0.9,22,30.22,10.0,ENE,4.6,-,N/A,,Clear,70,2013-02-28 00:53:00
6:53 PM,30.0,1.0,29,30.29,10.0,NNE,8.1,-,N/A,,Clear,30,2013-02-28 01:53:00
7:53 PM,27.0,-2.0,29,30.29,10.0,North,9.2,-,N/A,,Clear,10,2013-02-28 02:53:00
8:53 PM,24.1,-0.9,34,30.29,10.0,North,4.6,-,N/A,,Clear,350,2013-02-28 03:53:00
9:53 PM,21.0,-0.9,38,30.30,10.0,Calm,Calm,-,N/A,,Clear,0,2013-02-28 04:53:00
10:53 PM,17.1,-0.0,47,30.30,10.0,NNW,4.6,-,N/A,,Clear,340,2013-02-28 05:53:00
11:53 PM,14.0,-0.0,54,30.30,10.0,SSW,3.5,-,N/A,,Clear,210,2013-02-28 06:53:00